Weather History for Watertown, WI

Change the Weather History Date:

Monday, September 2, 2013

  Actual Average Record
Temperature  
Mean Temperature 62 °F -  
Max Temperature 70 °F 79 °F 98 °F (1953)
Min Temperature 53 °F 56 °F 41 °F (1976)
Degree Days  
Heating Degree Days 4    
Growing Degree Days 12 (Base 50)    
Moisture  
Dew Point 55 °F    
Average Humidity 75    
Maximum Humidity 94    
Minimum Humidity 55    
Precipitation  
Precipitation 0.00 in - - ()
Sea Level Pressure  
Sea Level Pressure 29.96 in    
Wind  
Wind Speed 5 mph (NNW)    
Max Wind Speed 13 mph    
Max Gust Speed 18 mph    
Visibility 10 miles    
Events      
Averages and records for this station are not official NWS values.
T = Trace of Precipitation, MM = Missing Value Source: NWS Daily Summary

Daily Weather History Graph

Daily Weather History Graph

Search for Another Location

Airport:

Trip Planner

Search our weather history database for the weather conditions in past years. The results will help you decide how hot, cold, wet, or windy it might be!

Date:

Astronomy

Sep. 02, 2013 Rise Set
Actual Time 6:20 AM CDT 7:27 PM CDT
Civil Twilight 5:51 AM CDT 7:56 PM CDT
Nautical Twilight 5:16 AM CDT 8:31 PM CDT
Astronomical Twilight 4:39 AM CDT 9:08 PM CDT
Moon 3:34 AM CDT (9/2) 5:42 PM CDT (9/2)
Length of Visible Light 14h 05m
Length of Day
13h 07m
Waning Crescent, 8% of the Moon is Illuminated
Sep 2
Waning Crescent
Sep 5
New
Sep 12
First Quarter
Sep 19
Full
Sep 26
Last Quarter

Hourly Weather History & Observations

Time (CDT) Temp. Dew Point Humidity Pressure Visibility Wind Dir Wind Speed Gust Speed Precip Events Conditions
12:15 AM 58.5 °F 55.9 °F 91% 29.84 in 10.0 mi Calm Calm - N/A   Clear
12:55 AM 58.6 °F 56.8 °F 94% 29.84 in 10.0 mi Calm Calm - N/A   Clear
1:15 AM 58.3 °F 55.9 °F 92% 29.85 in 10.0 mi Calm Calm - N/A   Clear
1:35 AM 58.1 °F 56.3 °F 94% 29.85 in 10.0 mi Calm Calm - N/A   Clear
2:15 AM 60.4 °F 57.7 °F 91% 29.86 in 10.0 mi Calm Calm - N/A   Clear
2:55 AM 61.0 °F 57.2 °F 87% 29.86 in 10.0 mi NW 4.6 mph - N/A   Clear
3:35 AM 60.4 °F 57.4 °F 90% 29.87 in 10.0 mi NW 5.8 mph - N/A   Clear
3:55 AM 59.9 °F 57.6 °F 92% 29.87 in 10.0 mi NNW 5.8 mph - N/A   Scattered Clouds
4:15 AM 59.9 °F 57.7 °F 93% 29.88 in 10.0 mi NW 4.6 mph - N/A   Clear
5:55 AM 61.0 °F 58.3 °F 91% 29.90 in 10.0 mi North 5.8 mph - N/A   Mostly Cloudy
6:55 AM 60.8 °F 57.4 °F 88% 29.92 in 10.0 mi NNW 8.1 mph - N/A   Clear
7:15 AM 61.2 °F 57.4 °F 87% 29.92 in 10.0 mi NNW 8.1 mph - N/A   Clear
7:35 AM 61.9 °F 57.6 °F 86% 29.93 in 10.0 mi NNW 9.2 mph - N/A   Clear
7:55 AM 62.1 °F 57.6 °F 85% 29.94 in 10.0 mi NNW 6.9 mph - N/A   Clear
8:15 AM 62.8 °F 58.3 °F 85% 29.94 in 10.0 mi North 8.1 mph - N/A   Mostly Cloudy
8:35 AM 63.1 °F 57.6 °F 82% 29.95 in 10.0 mi North 10.4 mph - N/A   Overcast
8:55 AM 64.4 °F 58.1 °F 80% 29.95 in 10.0 mi NNW 8.1 mph - N/A   Overcast
9:35 AM 64.0 °F 57.9 °F 80% 29.96 in 10.0 mi North 3.5 mph - N/A   Overcast
9:55 AM 64.4 °F 57.9 °F 79% 29.96 in 10.0 mi North 6.9 mph - N/A   Overcast
10:55 AM 66.6 °F 57.0 °F 71% 29.98 in 10.0 mi NW 8.1 mph - N/A   Overcast
11:15 AM 67.3 °F 55.6 °F 66% 29.98 in 10.0 mi NW 10.4 mph - N/A   Overcast
11:35 AM 67.5 °F 56.7 °F 68% 29.98 in 10.0 mi North 9.2 mph - N/A   Overcast
11:55 AM 68.0 °F 56.3 °F 66% 29.98 in 10.0 mi NNW 9.2 mph - N/A   Overcast
12:15 PM 67.5 °F 58.1 °F 72% 29.99 in 10.0 mi NW 10.4 mph 16.1 mph N/A   Overcast
12:35 PM 67.8 °F 55.4 °F 64% 29.98 in 10.0 mi North 12.7 mph 18.4 mph N/A   Overcast
12:55 PM 68.4 °F 56.3 °F 65% 29.98 in 10.0 mi North 6.9 mph - N/A   Overcast
1:15 PM 67.1 °F 56.1 °F 68% 29.98 in 10.0 mi NNW 10.4 mph - N/A   Overcast
1:35 PM 66.2 °F 56.3 °F 70% 29.99 in 10.0 mi NW 10.4 mph - N/A   Overcast
1:55 PM 65.7 °F 55.2 °F 69% 29.98 in 10.0 mi NNW 9.2 mph - N/A   Overcast
2:15 PM 68.0 °F 55.2 °F 64% 29.98 in 10.0 mi WNW 8.1 mph - N/A   Overcast
2:35 PM 68.0 °F 54.3 °F 62% 29.97 in 10.0 mi NNW 8.1 mph - N/A   Overcast
2:55 PM 69.1 °F 54.5 °F 60% 29.97 in 10.0 mi North 8.1 mph - N/A   Overcast
3:15 PM 67.6 °F 54.3 °F 62% 29.97 in 10.0 mi NW 6.9 mph - N/A   Overcast
3:35 PM 68.2 °F 54.7 °F 62% 29.97 in 10.0 mi North 9.2 mph - N/A   Overcast
3:55 PM 68.7 °F 54.0 °F 59% 29.97 in 10.0 mi NNW 9.2 mph - N/A   Mostly Cloudy
4:15 PM 68.0 °F 53.4 °F 60% 29.97 in 10.0 mi NNW 6.9 mph - N/A   Mostly Cloudy
4:35 PM 68.7 °F 53.1 °F 57% 29.96 in 10.0 mi NNW 8.1 mph - N/A   Scattered Clouds
4:55 PM 68.9 °F 52.3 °F 55% 29.96 in 10.0 mi North 6.9 mph - N/A   Scattered Clouds
5:15 PM 68.4 °F 52.3 °F 57% 29.96 in 10.0 mi NW 9.2 mph - N/A   Scattered Clouds
5:35 PM 68.4 °F 53.2 °F 58% 29.96 in 10.0 mi North 8.1 mph - N/A   Scattered Clouds
6:15 PM 67.1 °F 52.3 °F 59% 29.98 in 10.0 mi NNW 8.1 mph - N/A   Scattered Clouds
6:35 PM 65.5 °F 52.7 °F 63% 29.98 in 10.0 mi North 4.6 mph - N/A   Clear
6:55 PM 64.8 °F 52.5 °F 64% 29.98 in 10.0 mi North 5.8 mph - N/A   Scattered Clouds
7:15 PM 63.7 °F 52.9 °F 68% 29.98 in 10.0 mi North 3.5 mph - N/A   Scattered Clouds
7:35 PM 62.6 °F 52.7 °F 70% 29.98 in 10.0 mi North 3.5 mph - N/A   Scattered Clouds
8:15 PM 62.1 °F 52.7 °F 71% 29.99 in 10.0 mi North 3.5 mph - N/A   Scattered Clouds
8:35 PM 60.8 °F 52.3 °F 74% 30.00 in 10.0 mi North 4.6 mph - N/A   Clear
8:55 PM 60.1 °F 52.2 °F 75% 30.00 in 10.0 mi North 4.6 mph - N/A   Clear
9:35 PM 58.8 °F 52.0 °F 78% 30.01 in 10.0 mi North 3.5 mph - N/A   Clear
9:55 PM 57.6 °F 51.8 °F 81% 30.01 in 10.0 mi North 4.6 mph - N/A   Clear
10:15 PM 56.8 °F 51.8 °F 83% 30.01 in 10.0 mi NNE 4.6 mph - N/A   Clear
10:35 PM 56.7 °F 51.1 °F 82% 30.01 in 10.0 mi North 4.6 mph - N/A   Clear
10:55 PM 55.6 °F 50.7 °F 84% 30.01 in 10.0 mi Calm Calm - N/A   Clear
11:15 PM 55.0 °F 50.4 °F 84% 30.01 in 10.0 mi Calm Calm - N/A   Clear
11:35 PM 54.3 °F 50.2 °F 86% 30.01 in 10.0 mi Calm Calm - N/A   Clear
11:55 PM 53.8 °F 49.6 °F 86% 30.01 in 10.0 mi Calm Calm - N/A   Clear